Flag for U.S.A. Weather past 2 weeks in Charlottesville, Virginia, U.S.A.

Now
65 °F

Passing clouds.


Feels Like: 65 °F
Forecast: 61 / 78 °F
Wind: No wind

Location: Charlottesville-Albemarle Airport

Current Time: Sep 16, 2014 at 10:10:12 AM

Latest Report: Sep 16, 2014 at 8:53 AM


Visibility: 10 mi

Pressure: 30.03 "Hg

Humidity: 94%

Dew point: 63 °F

Location of CharlottesvilleLocation

Historic Weather in Charlottesville — Graph

°F

Charlottesville temperature yesterday

Maximum temperature yesterday: 73 °F (at 3:53 PM)
Minimum temperature yesterday: 52 °F (at 6:53 AM)
Average temperature yesterday: 64 °F

Past Weeks' High & Low Weather Summary

 TemperatureHumidityPressure
High122 °F (Sep 10, 9:14 AM)97% (Sep 4, 3:53 AM)30.33 "Hg (Sep 4, 3:53 AM)
Low50 °F (Sep 14, 5:53 AM)7% (Sep 10, 9:14 AM)29.86 "Hg (Sep 2, 6:53 PM)
Average73 °F75%30.07 "Hg
* Reported Sep 1 8:53 AM — Sep 16 8:53 AM, Charlottesville, Weather by CustomWeather, © 2014

Note: Actual official high and low records may vary slightly from our data, if they occured in-between our weather recording intervals... More about our weather records

Advertising

Charlottesville weather history for previous 24 hours

 ConditionsComfort  
Time TempWeatherWind HumidityBarometerVisibility
8:53 AM
Sep 16
65 °FPassing clouds.No wind94%30.03 "Hg10 mi
7:53 AM61 °FFog.No wind97%30.02 "Hg0 mi
6:53 AM61 °FFog.No wind97%30.02 "Hg0 mi
5:53 AM63 °FFog.No wind97%30.01 "Hg1 mi
4:53 AM63 °FFog.5 mph97%30.00 "Hg5 mi
3:53 AM64 °FClear.6 mph94%30.00 "Hg7 mi
2:53 AM64 °FClear.5 mph94%30.01 "Hg9 mi
1:53 AM66 °FPartly cloudy.No wind87%30.01 "Hg10 mi
12:53 AM66 °FMostly cloudy.6 mph87%30.02 "Hg10 mi
11:53 PM
Sep 15
66 °FMostly cloudy.7 mph84%30.02 "Hg10 mi
10:53 PM67 °FMostly cloudy.6 mph81%30.06 "Hg10 mi
9:53 PM67 °FOvercast.7 mph79%30.08 "Hg10 mi
8:53 PM68 °FOvercast.10 mph76%30.09 "Hg10 mi
7:53 PM68 °FOvercast.8 mph76%30.09 "Hg10 mi
6:53 PM70 °FSunny.7 mph68%30.09 "Hg10 mi
5:53 PM73 °FPassing clouds.5 mph57%30.09 "Hg10 mi
4:53 PM73 °FPartly sunny.3 mph53%30.11 "Hg10 mi
3:53 PM73 °FScattered clouds.5 mph53%30.12 "Hg10 mi
2:53 PM72 °FPartly sunny.No wind53%30.15 "Hg10 mi
1:53 PM72 °FPassing clouds.No wind53%30.16 "Hg10 mi
12:53 PM71 °FPartly sunny.7 mph55%30.19 "Hg10 mi
11:53 AM71 °FPartly sunny.N/A53%30.21 "Hg10 mi
10:53 AM67 °FPartly sunny.5 mph63%30.24 "Hg10 mi
Weather by CustomWeather, © 2014

See weather overviewHow to use our weather pages